Home > Weather > Downey > Past weeks

Flag for USA Past Weather in Downey, California, USA — Yesterday and Last 2 Weeks

Now
70 °F

Sunny.


Feels Like: 72 °F
Forecast: 63 / 88 °F
Wind: No wind

Location: Long Beach Airport

Current Time: Jun 26, 2016 at 8:26:07 AM

Latest Report: Jun 26, 2016 at 7:53 AM


Visibility: 8 mi

Pressure: 29.88 "Hg

Humidity: 76%

Dew Point: 62 °F

Location of DowneyLocation

Past Weather in Downey — Graph

°F

Downey Temperature Yesterday

Maximum temperature yesterday: 75 °F (at 1:53 PM)
Minimum temperature yesterday: 65 °F (at 12:53 AM)
Average temperature yesterday: 69 °F

High & Low Weather Summary for the Past Weeks

 TemperatureHumidityPressure
High99 °F (Jun 20, 3:53 PM)96% (Jun 11, 9:53 AM)30.13 "Hg (Jun 11, 9:53 AM)
Low58 °F (Jun 16, 3:53 AM)12% (Jun 20, 3:53 PM)29.80 "Hg (Jun 20, 5:53 PM)
Average70 °F64%29.95 "Hg
* Reported Jun 11 6:53 AM — Jun 26 6:53 AM, Downey, Weather by CustomWeather, © 2016

Note: Actual official high and low records may vary slightly from our data, if they occured in-between our weather recording intervals... More about our weather records

Advertising

Downey Weather History for the Previous 24 Hours

Scroll right to see more
 ConditionsComfort  
Time TempWeatherWind HumidityBarometerVisibility
6:53 AM
Sun, Jun 26
67 °FSunny.No wind85%29.87 "Hg7 mi
5:53 AM65 °FClear.3 mph87%29.86 "Hg8 mi
4:53 AM66 °FClear.No wind84%29.85 "Hg9 mi
3:53 AM65 °FClear.3 mph87%29.85 "Hg9 mi
2:53 AM66 °FClear.No wind87%29.86 "Hg9 mi
1:53 AM67 °FClear.No wind81%29.86 "Hg10 mi
12:53 AM67 °FClear.No wind81%29.87 "Hg10 mi
11:53 PM
Sat, Jun 25
67 °FClear.3 mph81%29.88 "Hg10 mi
10:53 PM67 °FPassing clouds.6 mph81%29.88 "Hg10 mi
9:53 PM67 °FPassing clouds.5 mph81%29.86 "Hg10 mi
8:53 PM67 °FSunny.6 mph81%29.84 "Hg10 mi
7:53 PM68 °FSunny.6 mph78%29.83 "Hg9 mi
6:53 PM69 °FSunny.9 mph76%29.83 "Hg10 mi
5:53 PM70 °FSunny.8 mph71%29.83 "Hg10 mi
4:53 PM72 °FSunny.10 mph66%29.83 "Hg10 mi
3:53 PM73 °FSunny.13 mph64%29.84 "Hg9 mi
2:53 PM74 °FSunny.9 mph62%29.85 "Hg9 mi
1:53 PM75 °FSunny.10 mph60%29.85 "Hg9 mi
12:53 PM74 °FSunny.9 mph62%29.86 "Hg9 mi
11:53 AM74 °FSunny.8 mph62%29.87 "Hg9 mi
10:53 AM72 °FSunny.9 mph66%29.88 "Hg9 mi
9:53 AM71 °FPassing clouds.6 mph66%29.87 "Hg8 mi
8:53 AM69 °FOvercast.3 mph70%29.88 "Hg8 mi
Weather by CustomWeather, © 2016

See weather overviewHow to use our weather pages